EW7665 Weather Reports


time (UTC)temp
C
wind
direction
speed
KPH
gust
KPH
rain 1hr
cm
rain 24hr
cm
rain mn
cm
humidity
%
barometer
mb
20260505100057 12 25 1.6 8.0 0.00 0.00 0.00 45 1008.5
20260505094553 12 66 6.4 9.7 0.00 0.00 0.00 45 1008.6
20260505093054 12 81 1.6 8.0 0.00 0.00 0.00 43 1008.5
20260505091557 12 96 6.4 12.9 0.00 0.00 0.00 43 1008.5
20260505090057 12 80 4.8 11.3 0.00 0.00 0.00 43 1008.6
20260505084600 12 94 9.7 11.3 0.00 0.00 0.00 44 1008.1
20260505083104 13 96 4.8 4.8 0.00 0.00 0.00 44 1008.8
20260505081548 13 78 3.2 3.2 0.00 0.00 0.00 44 1008.7
20260505080054 13 72 4.8 11.3 0.00 0.00 0.00 42 1008.7
20260505074551 13 79 11.3 16.1 0.00 0.00 0.00 42 1008.0
20260505073058 13 64 6.4 16.1 0.00 0.00 0.00 42 1007.5
20260505071551 13 100 6.4 8.0 0.00 0.00 0.00 43 1007.4
20260505070057 13 75 3.2 8.0 0.00 0.00 0.00 43 1007.5
20260505064615 14 90 6.4 9.7 0.00 0.00 0.00 42 1007.4
20260505063047 15 67 9.7 17.7 0.00 0.00 0.00 42 1007.5
20260505061551 15 36 8.0 8.0 0.00 0.00 0.00 42 1007.6
20260505060051 15 67 1.6 12.9 0.00 0.00 0.00 38 1007.6
20260505054552 16 52 6.4 14.5 0.00 0.00 0.00 38 1007.3
20260505053049 17 24 14.5 14.5 0.00 0.00 0.00 38 1007.2
20260505051551 17 310 4.8 8.0 0.00 0.00 0.00 37 1006.7
20260505041551 19 64 16.1 16.1 0.00 0.00 0.00 34 1004.7
20260505040059 20 78 3.2 17.7 0.00 0.00 0.00 34 1005.3
20260505034608 20 322 12.9 24.1 0.00 0.00 0.00 34 1004.6
20260505033049 20 110 3.2 14.5 0.00 0.00 0.00 34 1004.5
20260505031550 21 328 8.0 9.7 0.00 0.00 0.00 34 1004.0
20260505030059 22 83 9.7 17.7 0.00 0.00 0.00 37 1003.4
20260505024612 22 99 9.7 14.5 0.00 0.00 0.00 37 1002.8
20260505023050 22 108 6.4 9.7 0.00 0.00 0.00 37 1002.6
20260505021550 22 109 1.6 9.7 0.00 0.00 0.00 55 1002.4
20260505020104 22 320 0.0 8.0 0.00 0.00 0.00 55 1002.1
20260505014550 22 0 0.0 0.0 0.00 0.00 0.00 55 1001.5
20260505013054 23 0 0.0 0.0 0.00 0.00 0.00 47 1001.3
20260505011550 25 0 0.0 0.0 0.00 0.00 0.00 47 1001.0
20260505010109 25 0 0.0 1.6 0.00 0.00 0.00 47 1000.9
20260505004602 25 0 0.0 0.0 0.00 0.00 0.00 39 1000.7
20260505003052 26 0 0.0 3.2 0.00 0.00 0.00 39 1000.8
20260505001548 27 0 0.0 0.0 0.00 0.00 0.00 39 1000.7
20260505000104 27 146 0.0 1.6 0.00 0.00 0.00 36 1000.9
20260504234548 27 215 0.0 3.2 0.00 0.00 0.00 36 1000.9
20260504233055 28 227 0.0 3.2 0.00 0.00 0.00 36 1000.9
20260504231619 29 136 3.2 4.8 0.00 0.00 0.00 30 1000.8
20260504230056 29 196 3.2 3.2 0.00 0.00 0.00 30 1000.7
20260504224552 30 252 1.6 3.2 0.00 0.00 0.00 25 1000.6
20260504223051 29 232 0.0 0.0 0.00 0.00 0.00 25 1000.5
20260504221631 29 0 0.0 1.6 0.00 0.00 0.00 25 1000.4
20260504220058 29 87 0.0 3.2 0.00 0.00 0.00 27 1000.6
20260504214551 30 15 1.6 3.2 0.00 0.00 0.00 27 1000.7
20260504213054 30 22 0.0 3.2 0.00 0.00 0.00 27 1000.9
20260504211553 30 308 1.6 1.6 0.00 0.00 0.00 29 1000.8
20260504210052 30 286 4.8 6.4 0.00 0.00 0.00 29 1001.1
20260504204555 29 225 3.2 4.8 0.00 0.00 0.00 29 1001.3
20260504203050 29 267 3.2 4.8 0.00 0.00 0.00 25 1001.5
20260504201556 29 238 1.6 3.2 0.00 0.00 0.00 25 1001.6
20260504200053 29 127 1.6 3.2 0.00 0.00 0.00 25 1001.6
20260504194601 30 288 4.8 11.3 0.00 0.00 0.00 25 1001.8
20260504193050 30 244 4.8 4.8 0.00 0.00 0.00 25 1001.9
20260504191610 29 227 1.6 6.4 0.00 0.00 0.00 25 1001.8
20260504190048 29 223 6.4 6.4 0.00 0.00 0.00 29 1001.9
20260504184556 28 296 1.6 3.2 0.00 0.00 0.00 29 1001.9
20260504183049 28 293 3.2 4.8 0.00 0.00 0.00 29 1002.0
20260504181552 27 279 4.8 4.8 0.00 0.00 0.00 32 1001.9
20260504180049 27 207 3.2 6.4 0.00 0.00 0.00 32 1001.9
20260504174551 27 269 3.2 4.8 0.00 0.00 0.00 32 1002.1
20260504173055 27 238 1.6 6.4 0.00 0.00 0.00 42 1002.1
20260504171548 26 244 0.0 6.4 0.00 0.00 0.00 42 1002.2
20260504140104 19 267 12.9 14.5 0.00 0.00 0.00 60 1002.9